Regional Weather Roundup
Issued by NWS Albany, NY

Home | Current Version | Previous Version | Graphics & Text | Print | Product List | Glossary Off
Versions: 1 2 3 4 5 6 7 8 9 10 11 12 13 14 15 16 17 18 19 20 21 22 23 24 25 26 27 28 29 30 31 32 33 34 35 36 37 38 39 40 41 42 43 44 45 46 47 48 49 50

000
ASUS41 KALY 230410
RWRALY

NEW YORK STATE HOURLY WEATHER ROUNDUP
NATIONAL WEATHER SERVICE ALBANY NY
1200 AM EDT TUE SEP 23 2014

NOTE: "FAIR" INDICATES FEW OR NO CLOUDS BELOW 12,000 FEET WITH NO
SIGNIFICANT WEATHER AND/OR NO OBSTRUCTIONS TO VISIBILITY.

NYZ032-033-038>043-046>054-057>066-NYZ062>081-230500-
EAST


CITY           SKY/WX    TMP DP  RH WIND       PRES   REMARKS
ALBANY         PTCLDY    48  41  76 CALM      30.16R
GLENS FALLS    CLEAR     43  39  86 SW5       30.14R
POUGHKEEPSIE   CLEAR     46  40  79 VRB3      30.15R
NEWBURGH       CLEAR     48  41  76 CALM      30.17R
MONTGOMERY     CLEAR     44  38  79 SE7       30.16R
WHITE PLAINS   CLEAR     51  38  60 NW6       30.16R
ISLIP          PTCLDY    54  40  59 N7        30.14R
NEW YORK CITY  PTCLDY    57  41  55 NW14G22   30.16R
CENTRAL PARK   CLEAR     56  38  50 VRB7      30.20R
$$

NYZ005>009-017-018-044>046-055-056-230500-
CENTRAL


CITY           SKY/WX    TMP DP  RH WIND       PRES   REMARKS
FULTON         MOCLDY    50  43  77 SW6       30.19R
SYRACUSE       PTCLDY    51  42  71 W10       30.19R
ROME           PTCLDY    47  45  93 CALM      30.19R
ELMIRA         CLEAR     40  39  97 CALM      30.22R
BINGHAMTON     CLEAR     43  38  82 W7        30.19S
MONTICELLO     CLEAR     45  37  76 MISG      30.18R
$$

NYZ026>034-041>043-230500-
NORTH


CITY           SKY/WX    TMP DP  RH WIND       PRES   REMARKS
WATERTOWN      CLEAR     40  35  83 CALM      30.17R
FORT DRUM      NOT AVBL
MASSENA        CLEAR     42  39  89 SW9       30.13R
SARANAC LAKE   CLOUDY    41  38  89 SW6       30.11R
PLATTSBURGH    CLEAR     41  39  93 CALM      30.12R
$$

NYZ001>004-010>016-019>021-230500-
WEST


CITY           SKY/WX    TMP DP  RH WIND       PRES   REMARKS
NIAGARA FALLS  CLEAR     45  41  86 SW7       30.22R
BUFFALO        CLEAR     49  40  71 W7        30.23R
DUNKIRK        CLEAR     53  42  66 W7        30.24R
JAMESTOWN      CLEAR     45  39  81 W7        30.24S
WELLSVILLE     CLEAR     42  39  89 W8        30.23S
ROCHESTER      CLEAR     45  41  86 SW7       30.21R
PENN YAN       CLEAR     47  42  83 S7        30.22R
$$

             KEY
       WCI = WIND CHILL INDEX
       VSB = VISIBILITY
       HX  = HEAT INDEX
$$



USA.gov is the U.S. government's official web portal to all federal, state and local government web resources and services.